�������l�o���
Date,Time,MP-1(��Sv/h),MP-2(��Sv/h),MP-3(��Sv/h),MP-4(��Sv/h),MP-5(��Sv/h),MP-6(��Sv/h),MP-7(��Sv/h),MP-8(��Sv/h),����,����(m/s),���J
2021/08/03,00:00,0.604,0.897,0.573,1.082,0.775,0.367,0.633,0.590,��,6.9,��
2021/08/03,00:10,0.604,0.898,0.571,1.083,0.776,0.367,0.633,0.591,��,7.0,��
2021/08/03,00:20,0.602,0.898,0.571,1.084,0.773,0.368,0.633,0.592,��,6.8,��
2021/08/03,00:30,0.603,0.900,0.573,1.083,0.775,0.367,0.633,0.592,��,6.4,��
2021/08/03,00:40,0.606,0.899,0.572,1.084,0.773,0.367,0.634,0.592,��,6.7,��
2021/08/03,00:50,0.603,0.899,0.572,1.084,0.775,0.368,0.633,0.591,��,5.9,��
2021/08/03,01:00,0.602,0.899,0.572,1.085,0.775,0.368,0.632,0.591,��,7.9,��
2021/08/03,01:10,0.602,0.899,0.572,1.081,0.775,0.367,0.634,0.591,��,8.3,��
2021/08/03,01:20,0.602,0.899,0.573,1.082,0.774,0.366,0.634,0.590,��,8.0,��
2021/08/03,01:30,0.601,0.899,0.573,1.084,0.774,0.366,0.633,0.592,��,8.3,��
2021/08/03,01:40,0.602,0.899,0.571,1.081,0.776,0.367,0.633,0.592,��,8.3,��
2021/08/03,01:50,0.603,0.901,0.573,1.081,0.777,0.368,0.632,0.590,��,7.6,��
2021/08/03,02:00,0.601,0.899,0.572,1.084,0.775,0.367,0.631,0.592,��,7.7,��
2021/08/03,02:10,0.604,0.899,0.571,1.082,0.776,0.367,0.632,0.591,��,6.3,��
2021/08/03,02:20,0.603,0.900,0.570,1.082,0.774,0.366,0.631,0.591,��,6.8,��
2021/08/03,02:30,0.603,0.899,0.572,1.084,0.774,0.367,0.633,0.590,��,8.0,��
2021/08/03,02:40,0.605,0.898,0.571,1.084,0.774,0.367,0.632,0.591,��,7.0,��
2021/08/03,02:50,0.603,0.897,0.571,1.083,0.776,0.366,0.633,0.591,��,6.0,��
2021/08/03,03:00,0.601,0.898,0.572,1.084,0.773,0.366,0.633,0.590,��,6.5,��
2021/08/03,03:10,0.603,0.899,0.571,1.083,0.775,0.366,0.632,0.592,��,8.2,��
2021/08/03,03:20,0.602,0.900,0.571,1.082,0.774,0.367,0.631,0.591,��,8.4,��
2021/08/03,03:30,0.602,0.898,0.572,1.083,0.775,0.366,0.633,0.591,��,7.7,��
2021/08/03,03:40,0.603,0.899,0.572,1.084,0.774,0.366,0.631,0.591,��,6.4,��
2021/08/03,03:50,0.604,0.899,0.570,1.082,0.774,0.367,0.631,0.590,��,6.1,��
2021/08/03,04:00,0.602,0.899,0.571,1.084,0.775,0.367,0.633,0.591,��,5.2,��
2021/08/03,04:10,0.602,0.898,0.572,1.082,0.774,0.366,0.631,0.591,��,4.8,��
2021/08/03,04:20,0.603,0.897,0.571,1.083,0.776,0.366,0.632,0.590,��,4.7,��
2021/08/03,04:30,0.602,0.900,0.573,1.084,0.774,0.367,0.632,0.591,��,5.3,��
2021/08/03,04:40,0.600,0.898,0.571,1.083,0.774,0.368,0.632,0.591,��,6.3,��
2021/08/03,04:50,0.600,0.900,0.572,1.084,0.774,0.366,0.632,0.590,��,7.1,��
2021/08/03,05:00,0.601,0.899,0.573,1.084,0.773,0.366,0.632,0.591,��,6.3,��
2021/08/03,05:10,0.603,0.898,0.571,1.084,0.774,0.367,0.634,0.591,��,5.7,��
2021/08/03,05:20,0.602,0.898,0.571,1.085,0.774,0.366,0.632,0.592,��,5.8,��
2021/08/03,05:30,0.602,0.898,0.573,1.083,0.774,0.366,0.632,0.591,��,4.8,��
2021/08/03,05:40,0.603,0.899,0.572,1.084,0.776,0.367,0.631,0.592,��,4.2,��
2021/08/03,05:50,0.603,0.901,0.570,1.083,0.775,0.365,0.633,0.590,��,3.6,��
2021/08/03,06:00,0.602,0.899,0.573,1.085,0.772,0.367,0.633,0.592,��,4.1,��
2021/08/03,06:10,0.602,0.899,0.570,1.083,0.776,0.365,0.633,0.591,��,4.7,��
2021/08/03,06:20,0.600,0.900,0.573,1.084,0.774,0.366,0.633,0.592,��,4.2,��
2021/08/03,06:30,0.603,0.900,0.573,1.083,0.775,0.367,0.632,0.591,��,4.5,��
2021/08/03,06:40,0.602,0.898,0.572,1.084,0.774,0.366,0.632,0.590,��,6.3,��
2021/08/03,06:50,0.602,0.899,0.572,1.083,0.773,0.367,0.634,0.592,��,6.0,��
2021/08/03,07:00,0.601,0.898,0.571,1.084,0.778,0.367,0.633,0.591,��,6.5,��
2021/08/03,07:10,0.600,0.900,0.569,1.084,0.775,0.366,0.631,0.591,��,7.6,��
2021/08/03,07:20,0.603,0.898,0.572,1.085,0.774,0.368,0.632,0.591,��,7.6,��
2021/08/03,07:30,0.603,0.900,0.572,1.083,0.776,0.366,0.633,0.591,��쓌,8.7,��
2021/08/03,07:40,0.604,0.898,0.571,1.083,0.774,0.367,0.632,0.591,��,7.6,��
2021/08/03,07:50,0.604,0.897,0.571,1.085,0.774,0.367,0.632,0.592,��,7.2,��
2021/08/03,08:00,0.602,0.897,0.570,1.086,0.776,0.367,0.633,0.592,��쓌,7.8,��
2021/08/03,08:10,0.604,0.899,0.572,1.086,0.774,0.365,0.635,0.591,��,8.0,��
2021/08/03,08:20,0.603,0.898,0.572,1.086,0.776,0.367,0.633,0.591,��,7.3,��
2021/08/03,08:30,0.602,0.898,0.571,1.085,0.776,0.367,0.634,0.592,��,7.8,��
2021/08/03,08:40,0.604,0.897,0.571,1.085,0.774,0.367,0.634,0.588,��,8.5,��
2021/08/03,08:50,0.603,0.896,0.572,1.086,0.772,0.367,0.635,0.590,��,9.6,��
2021/08/03,09:00,0.603,0.897,0.571,1.082,0.776,0.365,0.634,0.590,��,9.0,��
2021/08/03,09:10,0.602,0.898,0.571,1.085,0.774,0.365,0.634,0.588,��,9.9,��
2021/08/03,09:20,0.603,0.898,0.570,1.086,0.776,0.367,0.635,0.590,��,10.9,��
2021/08/03,09:30,0.603,0.897,0.571,1.085,0.776,0.367,0.632,0.590,��,10.0,��
2021/08/03,09:40,0.603,0.901,0.573,1.086,0.775,0.367,0.634,0.592,��,10.2,��
2021/08/03,09:50,0.603,0.897,0.573,1.087,0.779,0.368,0.634,0.590,��,11.7,��
2021/08/03,10:00,0.604,0.898,0.572,1.088,0.776,0.366,0.633,0.591,��,11.1,��
2021/08/03,10:10,0.604,0.897,0.573,1.088,0.776,0.368,0.636,0.590,��,10.2,��
2021/08/03,10:20,0.604,0.899,0.572,1.087,0.777,0.367,0.632,0.591,��,9.9,��
2021/08/03,10:30,0.604,0.899,0.571,1.087,0.778,0.367,0.633,0.590,��,10.5,��
2021/08/03,10:40,0.605,0.899,0.573,1.087,0.778,0.366,0.633,0.591,��,10.2,��
2021/08/03,10:50,0.604,0.898,0.572,1.088,0.776,0.368,0.633,0.590,��,12.0,��
2021/08/03,11:00,0.604,0.901,0.573,1.086,0.779,0.367,0.632,0.592,��,10.8,��
2021/08/03,11:10,0.606,0.901,0.570,1.089,0.779,0.369,0.635,0.591,��,11.6,��
2021/08/03,11:20,0.607,0.903,0.572,1.087,0.779,0.368,0.633,0.592,��쓌,12.5,��
2021/08/03,11:30,0.607,0.902,0.573,1.085,0.780,0.368,0.633,0.590,��쓌,11.3,��
2021/08/03,11:40,0.607,0.902,0.575,1.085,0.780,0.369,0.635,0.590,��쓌,11.6,��
2021/08/03,11:50,0.607,0.903,0.575,1.085,0.779,0.368,0.633,0.592,��,11.9,��
2021/08/03,12:00,0.607,0.905,0.574,1.087,0.780,0.369,0.634,0.592,��쓌,12.8,��
2021/08/03,12:10,0.607,0.904,0.574,1.089,0.782,0.370,0.632,0.590,��쓌,11.4,��
2021/08/03,12:20,0.606,0.904,0.574,1.088,0.780,0.369,0.634,0.592,��쓌,12.7,��
2021/08/03,12:30,0.607,0.905,0.574,1.090,0.781,0.370,0.634,0.592,��쓌,11.6,��
2021/08/03,12:40,0.606,0.906,0.576,1.086,0.780,0.369,0.634,0.593,��,10.2,��
2021/08/03,12:50,0.607,0.906,0.574,1.089,0.779,0.369,0.634,0.593,��쓌,10.7,��
2021/08/03,13:00,0.607,0.904,0.575,1.090,0.781,0.370,0.636,0.595,��쓌,12.0,��
2021/08/03,13:10,0.608,0.906,0.576,1.091,0.781,0.369,0.635,0.593,��쓌,12.0,��
2021/08/03,13:20,0.608,0.904,0.576,1.087,0.784,0.368,0.637,0.594,��,12.4,��
2021/08/03,13:30,0.607,0.904,0.578,1.089,0.784,0.372,0.636,0.593,��,12.8,��
2021/08/03,13:40,0.607,0.903,0.576,1.090,0.781,0.371,0.636,0.593,��쓌,13.1,��
2021/08/03,13:50,0.608,0.905,0.575,1.090,0.785,0.369,0.637,0.594,��,12.4,��
2021/08/03,14:00,0.609,0.906,0.575,1.089,0.783,0.370,0.637,0.594,��,11.3,��
2021/08/03,14:10,0.608,0.907,0.574,1.089,0.782,0.368,0.638,0.593,��,10.7,��
2021/08/03,14:20,0.608,0.907,0.577,1.092,0.785,0.369,0.638,0.594,��쓌,13.5,��
2021/08/03,14:30,0.608,0.907,0.576,1.090,0.785,0.369,0.636,0.594,��,13.5,��
2021/08/03,14:40,0.609,0.909,0.577,1.090,0.784,0.369,0.637,0.593,��,11.6,��
2021/08/03,14:50,0.608,0.908,0.576,1.091,0.784,0.371,0.637,0.592,��,12.7,��
2021/08/03,15:00,0.608,0.906,0.576,1.094,0.786,0.369,0.640,0.594,��,11.3,��
2021/08/03,15:10,0.608,0.907,0.575,1.093,0.785,0.369,0.635,0.592,��,10.0,��
2021/08/03,15:20,0.609,0.908,0.576,1.092,0.785,0.369,0.636,0.594,��쓌,9.1,��
2021/08/03,15:30,0.609,0.910,0.577,1.091,0.787,0.369,0.639,0.592,��,9.9,��
2021/08/03,15:40,0.609,0.907,0.576,1.093,0.787,0.370,0.636,0.592,��,9.0,��
2021/08/03,15:50,0.609,0.908,0.578,1.093,0.786,0.369,0.636,0.592,��,8.4,��
2021/08/03,16:00,0.611,0.911,0.577,1.095,0.785,0.370,0.635,0.594,��,7.9,��
2021/08/03,16:10,0.607,0.907,0.578,1.096,0.786,0.370,0.637,0.593,��쓌,9.0,��
2021/08/03,16:20,0.610,0.910,0.577,1.096,0.788,0.369,0.637,0.593,��쓌,9.9,��
2021/08/03,16:30,0.608,0.909,0.577,1.097,0.788,0.368,0.636,0.593,��,9.2,��
2021/08/03,16:40,0.609,0.908,0.576,1.099,0.787,0.369,0.636,0.594,��,9.7,��
2021/08/03,16:50,0.610,0.909,0.577,1.096,0.788,0.368,0.636,0.591,��,9.6,��
2021/08/03,17:00,0.610,0.910,0.578,1.096,0.785,0.368,0.636,0.594,��,9.3,��
2021/08/03,17:10,0.608,0.909,0.579,1.097,0.787,0.368,0.636,0.593,��,8.6,��
2021/08/03,17:20,0.609,0.908,0.579,1.092,0.787,0.368,0.635,0.592,��,8.9,��
2021/08/03,17:30,0.607,0.911,0.577,1.096,0.787,0.370,0.636,0.593,��,10.3,��
2021/08/03,17:40,0.610,0.910,0.576,1.097,0.786,0.369,0.637,0.594,��,9.1,��
2021/08/03,17:50,0.610,0.909,0.577,1.093,0.787,0.370,0.635,0.592,��,8.7,��
2021/08/03,18:00,0.609,0.910,0.577,1.096,0.786,0.368,0.635,0.592,��,8.7,��
2021/08/03,18:10,0.609,0.908,0.578,1.095,0.785,0.369,0.634,0.594,��,6.5,��
2021/08/03,18:20,0.609,0.909,0.577,1.094,0.786,0.369,0.636,0.594,��쐼,5.8,��
2021/08/03,18:30,0.607,0.909,0.575,1.095,0.784,0.368,0.636,0.593,��,5.6,��
2021/08/03,18:40,0.607,0.912,0.575,1.096,0.787,0.368,0.635,0.594,��,7.1,��
2021/08/03,18:50,0.610,0.909,0.577,1.095,0.786,0.369,0.634,0.591,��,6.4,��
2021/08/03,19:00,0.607,0.910,0.576,1.098,0.786,0.368,0.636,0.593,��,6.2,��
2021/08/03,19:10,0.609,0.910,0.575,1.098,0.786,0.368,0.635,0.594,��,6.5,��
2021/08/03,19:20,0.608,0.909,0.576,1.097,0.785,0.368,0.635,0.594,��,6.6,��
2021/08/03,19:30,0.608,0.911,0.578,1.092,0.784,0.369,0.635,0.592,��,7.0,��
2021/08/03,19:40,0.608,0.912,0.576,1.094,0.786,0.369,0.637,0.594,��,6.6,��
2021/08/03,19:50,0.609,0.911,0.575,1.094,0.786,0.368,0.636,0.594,��,5.7,��
2021/08/03,20:00,0.608,0.913,0.576,1.095,0.787,0.369,0.636,0.594,��,6.8,��
2021/08/03,20:10,0.608,0.912,0.576,1.096,0.787,0.368,0.635,0.592,��,6.9,��
2021/08/03,20:20,0.608,0.911,0.578,1.095,0.788,0.369,0.637,0.594,��,7.5,��
2021/08/03,20:30,0.607,0.911,0.578,1.096,0.788,0.368,0.636,0.593,��,8.4,��
2021/08/03,20:40,0.610,0.915,0.579,1.097,0.788,0.369,0.636,0.592,��,8.3,��
2021/08/03,20:50,0.608,0.913,0.579,1.097,0.785,0.369,0.635,0.593,��,8.0,��
2021/08/03,21:00,0.609,0.911,0.578,1.095,0.789,0.370,0.636,0.596,��,8.9,��
2021/08/03,21:10,0.611,0.912,0.575,1.095,0.786,0.368,0.635,0.594,��,7.9,��
2021/08/03,21:20,0.609,0.912,0.578,1.097,0.787,0.369,0.636,0.592,��,8.0,��
2021/08/03,21:30,0.611,0.912,0.578,1.094,0.787,0.369,0.635,0.593,��,7.0,��
2021/08/03,21:40,0.611,0.912,0.579,1.097,0.787,0.370,0.636,0.593,��,6.8,��
2021/08/03,21:50,0.610,0.914,0.577,1.097,0.787,0.369,0.636,0.594,��,7.3,��
2021/08/03,22:00,0.610,0.914,0.577,1.094,0.788,0.369,0.638,0.594,��,5.7,��
2021/08/03,22:10,0.608,0.914,0.577,1.098,0.787,0.370,0.636,0.594,��,5.1,��
2021/08/03,22:20,0.610,0.913,0.577,1.096,0.787,0.370,0.635,0.593,��,4.7,��
2021/08/03,22:30,0.609,0.912,0.576,1.098,0.787,0.368,0.636,0.594,��,5.2,��
2021/08/03,22:40,0.610,0.911,0.577,1.095,0.789,0.369,0.635,0.592,��,5.2,��
2021/08/03,22:50,0.610,0.911,0.577,1.095,0.787,0.369,0.635,0.593,��,5.0,��
2021/08/03,23:00,0.609,0.912,0.578,1.096,0.786,0.368,0.636,0.593,��,5.2,��
2021/08/03,23:10,0.608,0.911,0.578,1.097,0.786,0.369,0.636,0.592,��,5.4,��
2021/08/03,23:20,0.610,0.912,0.577,1.095,0.786,0.369,0.636,0.592,��,6.9,��
2021/08/03,23:30,0.611,0.911,0.578,1.097,0.787,0.368,0.636,0.595,��,6.2,��
2021/08/03,23:40,0.609,0.911,0.578,1.096,0.788,0.368,0.636,0.593,��,7.3,��
2021/08/03,23:50,0.610,0.912,0.577,1.095,0.787,0.370,0.637,0.594,��,7.0,��
